| time (UTC) | temp F | wind direction | speed knots | gust knots | rain 1hr in | rain 24hr in | rain mn in | humidity % | barometer mb |
| 20260510194515 | 73 | 237 | 0.9 | 12.2 | 0.00 | 0.00 | 0.00 | 18 | 1010.8 |
| 20260510193014 | 72 | 34 | 3.5 | 9.6 | 0.00 | 0.00 | 0.00 | 19 | 1010.8 |
| 20260510191515 | 71 | 246 | 1.7 | 14.8 | 0.00 | 0.00 | 0.00 | 21 | 1010.9 |
| 20260510190012 | 72 | 288 | 4.3 | 11.3 | 0.00 | 0.00 | 0.00 | 18 | 1010.9 |
| 20260510184508 | 72 | 310 | 4.3 | 11.3 | 0.00 | 0.00 | 0.00 | 19 | 1010.9 |
| 20260510183005 | 70 | 129 | 2.6 | 8.7 | 0.00 | 0.00 | 0.00 | 20 | 1011.1 |
| 20260510181505 | 68 | 153 | 0.9 | 7.0 | 0.00 | 0.00 | 0.00 | 22 | 1011.2 |
| 20260510180005 | 69 | 81 | 2.6 | 6.1 | 0.00 | 0.00 | 0.00 | 22 | 1011.2 |
| 20260510174504 | 70 | 146 | 0.9 | 7.0 | 0.00 | 0.00 | 0.00 | 23 | 1011.3 |
| 20260510173001 | 68 | 59 | 2.6 | 6.1 | 0.00 | 0.00 | 0.00 | 23 | 1011.4 |
| 20260510171604 | 67 | 114 | 2.6 | 7.0 | 0.00 | 0.00 | 0.00 | 21 | 1011.4 |
| 20260510170057 | 66 | 78 | 0.9 | 5.2 | 0.00 | 0.00 | 0.00 | 23 | 1011.4 |
| 20260510164601 | 65 | 82 | 1.7 | 6.1 | 0.00 | 0.00 | 0.00 | 23 | 1011.4 |
| 20260510163119 | 65 | 71 | 2.6 | 6.1 | 0.00 | 0.00 | 0.00 | 21 | 1011.4 |
| 20260510161603 | 64 | 98 | 0.9 | 4.3 | 0.00 | 0.00 | 0.00 | 21 | 1011.3 |
| 20260510160112 | 64 | 84 | 0.9 | 5.2 | 0.00 | 0.00 | 0.00 | 25 | 1011.1 |
| 20260510154556 | 66 | 69 | 1.7 | 6.1 | 0.00 | 0.00 | 0.00 | 25 | 1011.2 |
| 20260510153059 | 65 | 80 | 0.0 | 2.6 | 0.00 | 0.00 | 0.00 | 19 | 1011.1 |
| 20260510151553 | 64 | 123 | 0.0 | 2.6 | 0.00 | 0.00 | 0.00 | 19 | 1011.2 |
| 20260510150044 | 63 | 207 | 0.0 | 0.9 | 0.00 | 0.00 | 0.00 | 26 | 1011.1 |
| 20260510144545 | 59 | 281 | 0.0 | 0.0 | 0.00 | 0.00 | 0.00 | 39 | 1011.0 |
| 20260510143049 | 54 | 281 | 0.0 | 1.7 | 0.00 | 0.00 | 0.00 | 47 | 1011.0 |
| 20260510141635 | 48 | 281 | 0.0 | 0.9 | 0.00 | 0.00 | 0.00 | 51 | 1010.7 |
| 20260510140034 | 46 | 280 | 0.9 | 1.7 | 0.00 | 0.00 | 0.00 | 52 | 1010.6 |
| 20260510134536 | 44 | 283 | 0.0 | 1.7 | 0.00 | 0.00 | 0.00 | 52 | 1010.3 |
| 20260510133035 | 0 | 0.0 | 0.0 | 0.00 | 0.00 | 0.00 | 1010.1 | ||
| 20260510131530 | 0 | 0.0 | 0.0 | 0.00 | 0.00 | 0.00 | 1010.1 | ||
| 20260510130021 | 0 | 0.0 | 0.0 | 0.00 | 0.00 | 0.00 | 1010.2 | ||
| 20260510124518 | 0 | 0.0 | 0.0 | 0.00 | 0.00 | 0.00 | 1010.5 | ||
| 20260510123012 | 0 | 0.0 | 0.0 | 0.00 | 0.00 | 0.00 | 1010.8 | ||
| 20260510121511 | 41 | 280 | 1.7 | 2.6 | 0.00 | 0.00 | 0.00 | 52 | 1010.9 |
| 20260510120011 | 42 | 279 | 0.9 | 1.7 | 0.00 | 0.00 | 0.00 | 50 | 1010.8 |
| 20260510114509 | 42 | 283 | 0.9 | 1.7 | 0.00 | 0.00 | 0.00 | 50 | 1010.9 |
| 20260510113012 | 42 | 277 | 0.9 | 1.7 | 0.00 | 0.00 | 0.00 | 49 | 1010.8 |
| 20260510111508 | 42 | 284 | 0.9 | 1.7 | 0.00 | 0.00 | 0.00 | 49 | 1010.8 |
| 20260510110007 | 42 | 281 | 0.9 | 2.6 | 0.00 | 0.00 | 0.00 | 49 | 1010.7 |
| 20260510104509 | 42 | 277 | 0.9 | 2.6 | 0.00 | 0.00 | 0.00 | 50 | 1010.7 |
| 20260510103006 | 42 | 277 | 0.9 | 2.6 | 0.00 | 0.00 | 0.00 | 50 | 1010.8 |
| 20260510101504 | 42 | 277 | 1.7 | 2.6 | 0.00 | 0.00 | 0.00 | 50 | 1010.9 |
| 20260510100003 | 43 | 276 | 0.9 | 2.6 | 0.00 | 0.00 | 0.00 | 49 | 1011.1 |
| 20260510094502 | 42 | 290 | 0.9 | 1.7 | 0.00 | 0.00 | 0.00 | 49 | 1011.2 |
| 20260510093109 | 43 | 277 | 0.9 | 2.6 | 0.00 | 0.00 | 0.00 | 48 | 1011.2 |
| 20260510091559 | 43 | 275 | 0.9 | 2.6 | 0.00 | 0.00 | 0.00 | 49 | 1011.3 |
| 20260510090058 | 43 | 277 | 0.9 | 1.7 | 0.00 | 0.00 | 0.00 | 48 | 1011.3 |
| 20260510084602 | 43 | 284 | 0.9 | 1.7 | 0.00 | 0.00 | 0.00 | 48 | 1011.4 |
| 20260510083055 | 44 | 276 | 0.9 | 1.7 | 0.00 | 0.00 | 0.00 | 47 | 1011.3 |
| 20260510081622 | 44 | 289 | 1.7 | 1.7 | 0.00 | 0.00 | 0.00 | 46 | 1011.4 |
| 20260510080054 | 45 | 275 | 0.9 | 2.6 | 0.00 | 0.00 | 0.00 | 45 | 1011.5 |
| 20260510074551 | 44 | 275 | 0.9 | 1.7 | 0.00 | 0.00 | 0.00 | 48 | 1011.5 |
| 20260510073058 | 45 | 279 | 0.9 | 1.7 | 0.00 | 0.00 | 0.00 | 46 | 1011.6 |
| 20260510071549 | 46 | 279 | 0.9 | 1.7 | 0.00 | 0.00 | 0.00 | 45 | 1011.6 |
| 20260510070047 | 47 | 275 | 0.9 | 1.7 | 0.00 | 0.00 | 0.00 | 43 | 1011.5 |
| 20260510064555 | 49 | 276 | 0.9 | 2.6 | 0.00 | 0.00 | 0.00 | 39 | 1011.4 |
| 20260510063048 | 49 | 277 | 0.0 | 2.6 | 0.00 | 0.00 | 0.00 | 35 | 1011.3 |
| 20260510061548 | 50 | 207 | 0.0 | 3.5 | 0.00 | 0.00 | 0.00 | 34 | 1011.2 |
| 20260510060049 | 50 | 273 | 0.0 | 3.5 | 0.00 | 0.00 | 0.00 | 37 | 1011.1 |
| 20260510054545 | 50 | 281 | 1.7 | 5.2 | 0.00 | 0.00 | 0.00 | 37 | 1011.1 |
| 20260510053102 | 50 | 275 | 0.0 | 3.5 | 0.00 | 0.00 | 0.00 | 38 | 1011.1 |
| 20260510051551 | 50 | 267 | 0.0 | 0.9 | 0.00 | 0.00 | 0.00 | 36 | 1010.9 |
| 20260510050050 | 50 | 282 | 0.0 | 2.6 | 0.00 | 0.00 | 0.00 | 40 | 1010.6 |
| 20260510044555 | 49 | 277 | 0.0 | 2.6 | 0.00 | 0.00 | 0.00 | 49 | 1010.5 |
| 20260510043051 | 49 | 277 | 0.9 | 2.6 | 0.00 | 0.00 | 0.00 | 52 | 1010.3 |
| 20260510041543 | 50 | 263 | 0.0 | 1.7 | 0.00 | 0.00 | 0.00 | 48 | 1010.1 |
| 20260510040045 | 51 | 275 | 0.0 | 1.7 | 0.00 | 0.00 | 0.00 | 47 | 1010.0 |
| 20260510034543 | 53 | 275 | 0.0 | 0.9 | 0.00 | 0.00 | 0.00 | 43 | 1009.8 |
| 20260510033056 | 54 | 282 | 0.0 | 1.7 | 0.00 | 0.00 | 0.00 | 42 | 1009.4 |
| 20260510031541 | 55 | 302 | 0.0 | 0.9 | 0.00 | 0.00 | 0.00 | 37 | 1009.2 |
| 20260510030046 | 57 | 305 | 0.0 | 0.9 | 0.00 | 0.00 | 0.00 | 34 | 1009.0 |
| 20260510024541 | 59 | 281 | 0.0 | 5.2 | 0.00 | 0.00 | 0.00 | 32 | 1008.8 |
| 20260510023040 | 60 | 223 | 0.0 | 5.2 | 0.00 | 0.00 | 0.00 | 33 | 1008.8 |
| 20260510021540 | 62 | 284 | 0.9 | 6.1 | 0.00 | 0.00 | 0.00 | 27 | 1008.6 |
| 20260510020039 | 65 | 255 | 3.5 | 8.7 | 0.00 | 0.00 | 0.00 | 26 | 1008.4 |
| 20260510014541 | 67 | 195 | 0.9 | 5.2 | 0.00 | 0.00 | 0.00 | 24 | 1008.4 |
| 20260510013038 | 67 | 232 | 0.0 | 5.2 | 0.00 | 0.00 | 0.00 | 25 | 1008.3 |
| 20260510011538 | 67 | 273 | 3.5 | 12.2 | 0.00 | 0.00 | 0.00 | 23 | 1008.3 |
| 20260510010037 | 69 | 294 | 3.5 | 8.7 | 0.00 | 0.00 | 0.00 | 23 | 1008.2 |
| 20260510004540 | 71 | 268 | 0.9 | 7.0 | 0.00 | 0.00 | 0.00 | 22 | 1008.3 |
| 20260510003043 | 71 | 294 | 1.7 | 7.0 | 0.00 | 0.00 | 0.00 | 22 | 1008.2 |
| 20260510001535 | 71 | 57 | 0.9 | 4.3 | 0.00 | 0.00 | 0.00 | 17 | 1008.4 |
| 20260510000035 | 71 | 80 | 0.0 | 7.0 | 0.00 | 0.00 | 0.00 | 17 | 1008.3 |
| 20260509234545 | 71 | 260 | 4.3 | 7.0 | 0.00 | 0.00 | 0.00 | 19 | 1008.3 |
| 20260509233031 | 70 | 60 | 0.9 | 6.1 | 0.00 | 0.00 | 0.00 | 19 | 1008.4 |
| 20260509231532 | 70 | 61 | 1.7 | 7.8 | 0.00 | 0.00 | 0.00 | 17 | 1008.6 |
| 20260509230029 | 70 | 167 | 0.9 | 4.3 | 0.00 | 0.00 | 0.00 | 20 | 1008.5 |
| 20260509224527 | 70 | 223 | 2.6 | 9.6 | 0.00 | 0.00 | 0.00 | 17 | 1008.9 |
| 20260509223025 | 70 | 225 | 0.9 | 8.7 | 0.00 | 0.00 | 0.00 | 17 | 1009.0 |
| 20260509221526 | 70 | 242 | 2.6 | 8.7 | 0.00 | 0.00 | 0.00 | 17 | 1009.2 |
| 20260509220023 | 70 | 161 | 1.7 | 8.7 | 0.00 | 0.00 | 0.00 | 19 | 1009.3 |
| 20260509214522 | 70 | 114 | 6.1 | 11.3 | 0.00 | 0.00 | 0.00 | 16 | 1009.6 |
| 20260509213020 | 69 | 350 | 1.7 | 4.3 | 0.00 | 0.00 | 0.00 | 17 | 1009.8 |
| 20260509211519 | 70 | 102 | 1.7 | 9.6 | 0.00 | 0.00 | 0.00 | 18 | 1010.0 |
| 20260509210020 | 69 | 138 | 1.7 | 7.0 | 0.00 | 0.00 | 0.00 | 19 | 1009.9 |
| 20260509204517 | 69 | 32 | 3.5 | 7.8 | 0.00 | 0.00 | 0.00 | 19 | 1010.0 |
| 20260509203018 | 68 | 71 | 1.7 | 9.6 | 0.00 | 0.00 | 0.00 | 19 | 1010.2 |
| 20260509201515 | 70 | 80 | 1.7 | 7.8 | 0.00 | 0.00 | 0.00 | 21 | 1010.2 |
| 20260509200014 | 68 | 119 | 1.7 | 7.0 | 0.00 | 0.00 | 0.00 | 23 | 1010.4 |